{"data":{"norad_id":64008,"intl_designator":"2025-101Q","name":"STARLINK-34163","alt_names":[],"object_type":"PAYLOAD","status":"ACTIVE","operator":null,"country":"US","launch_date":"2025-05-14","launch_site_code":"AFETR","launch_vehicle":null,"mission":null,"orbit_class":"UNKNOWN","rcs_meters":null,"size_class":null,"mass_kg":null,"dimensions":null,"purposes":["comms"],"wikipedia_slug":null,"has_3d_model":false,"image_url":null,"decayed_at":null,"tle_current":{"epoch":"2026-09-20T05:11:52.480032Z","epoch_age_seconds":168029,"freshness":"FRESH","line1":"1 64008U 25101Q   26263.21657963  .00006058  00000+0  22945-3 0  9998","line2":"2 64008  43.0026 339.5456 0001779 270.6276  89.4372 15.27586787 76804","mean_motion":15.27586787,"eccentricity":0.0001779,"inclination_deg":43.0026,"raan_deg":339.5456,"arg_perigee_deg":270.6276,"mean_anomaly_deg":89.4372,"bstar":0.00022945,"rev_number":7680,"period_min":94.266329890689,"perigee_km":481.8081720042,"apogee_km":484.24937478637,"semimajor_km":6861.1657733953,"source":"CELESTRAK","updated_at":"2026-09-21T09:00:35.182586Z"}}}